IRIDIUM 33 DEB, 35680

Orbit data source: Space-Track

IRIDIUM 33 DEB, 35680 is space debris in LEO originally from a launch on Sun, 14 Sep 1997 UTC launched from the Tyuratam Missile And Space Complex (TTMTR). The debris from Iridium 33, an American commercial communications satellite, has been tracked extensively since its accidental collision with the defunct Russian satellite Cosmos 2251 in 2009. This event, occurring at high speed in low Earth orbit (LEO), generated thousands of pieces of space debris, significantly increasing the risk of further collisions. The Iridium 33 debris cloud has impacted space traffic management and orbital debris mitigation strategies, making it a subject of ongoing study in space situational awareness.

Loading next visibility...
Identifier
35680, 1997-051RJ
Orbit
LEO
Country
Flag of USUS
Related business
Manufacturer
Unknown
Mission
Spacecraft
Bus & Motor
Unknown
Mass
Unknown
Launch date (UTC)
1997-09-14 (28 years ago)
Launch vehicle
Unknown
Launch site
Tyuratam Missile And Space Complex (TTMTR)
Object type
Payload
Rocket body
Debris
Shape & HBR
Unknown shape, 0.1 m
Radar Cross Section
Small (<0.1 m²)

Expand to show TLE details & history
Last TLE update: 6 days ago

TLE from 6 days ago
0 IRIDIUM 33 DEB
1 35680U 97051RJ  26032.14866109  .00004740  00000-0  19046-2 0  9999
2 35680  86.1038 359.1869 0153516 117.6658 259.4776 14.21742020614178
Epoch: 2026-02-01T03:34Z
TLE epoch observation values (Epoch: 2026-02-01T03:34:04.318Z)
Latitude
15.35897°
Longitude
175.3727°
Altitude
843.621 km
Speed
7.421 km/s
True Right ascension
00h 01m 00s
True Declination
15° 16' 21"
Sunlit
Object was in daylight at epoch
Visualization orbit readout
Latitude
Unknown
Longitude
Unknown
Altitude
Unknown
Speed
Unknown
Apparent Right ascension
Unknown
Apparent Declination
Unknown
Sunlit
N/A
Visualization observer readout
Local Sidereal Time
15:38:47
Azimuth
Unknown
Elevation
Unknown
Doppler factor
Unknown
Orbital elements
Apogee altitude
926.903 km
Perigee altitude
706.006 km
Semi-major axis
7,194.592 km
Eccentricity
0.01535
Inclination
86.1038°
RAAN
359.1869°
Arg. of periapsis
117.6658°
True anomaly
257.75432°
Mean anomaly
259.4776°
Eccentric anomaly
258.61532°
Mean motion
3.55659 °/min
Orbital period
101.22 mins
BSTAR
0.0019046
Loading maneuver chart data...
Computing Atmospheric mass density...
Loading historical data...
Loading historical data...
Loading historical data...
Loading historical data...
Loading historical data...
Loading historical data...
Loading historical data...

Documentation

Showing up to 5 results
|